Regional Weather Roundup
Issued by NWS Portland, ME

Home | Current Version | Previous Version | Text Only | Print | Product List | Glossary On
Versions: 1 2 3 4 5 6 7 8 9 10 11 12 13 14 15 16 17 18 19 20 21 22 23 24 25 26 27 28 29 30 31 32 33 34 35 36 37 38 39 40 41 42 43 44 45 46 47 48 49 50
000
ASUS41 KGYX 230210
RWRGYX
WEATHER ROUNDUP FOR MAINE AND NEW HAMPSHIRE
NATIONAL WEATHER SERVICE GRAY ME
1000 PM EDT MON SEP 22 2014

MEZ002-005-006-010-012-015-018-020-021-024-026-027-029-230300-
MAINE

CITY           SKY/WX    TMP DP  RH WIND       PRES   REMARKS
PORTLAND       CLEAR     50  37  61 W9        30.00R
SANFORD        CLEAR     52  34  50 W17G24    30.02R
BAR HARBOR     PTCLDY    52  41  66 W7        29.93R
WISCASSET      CLEAR     50  38  63 W5        30.00R
ROCKLAND       CLEAR     52  36  54 W9        29.95R
FRYEBURG       PTCLDY    50  34  54 NW13G23   30.00R
LEWISTONAUBURN CLEAR     45  34  65 W3        29.99R
AUGUSTA        CLOUDY    51  35  54 W12G22    29.98R
WATERVILLE     MOCLDY    52  34  50 W8        29.91R
BANGOR         CLOUDY    53  37  54 W9        29.93R
GREENVILLE       N/A     45  37  73 NW10G22   29.86R
MILLINOCKET    PTCLDY    50  42  74 VRB7G18   29.88R
HOULTON        PTCLDY    48  38  68 W12G20    29.81R
PRESQUE ISLE   PTCLDY    48  37  66 W8        29.78R
FRENCHVILLE    PTCLDY    44  39  82 W12       29.75R
CARIBOU        PTCLDY    47  40  76 W7        29.76R
$$

NHZ002-005-008-009-011-012-014-230300-
NEW HAMPSHIRE

CITY           SKY/WX    TMP DP  RH WIND       PRES   REMARKS
PORTSMOUTH     MOCLDY    55  40  58 NW14      30.02R
ROCHESTER      PTCLDY    52  36  54 NW13G21   30.02R
NASHUA         CLEAR     53  37  54 NW9       30.06R
MANCHESTER     PTCLDY    54  35  48 NW12      30.04R
CONCORD        CLEAR     51  36  56 NW9       30.04R
LACONIA        MOCLDY    50  34  53 W8        30.03R
PLYMOUTH       CLOUDY    50  41  70 CALM      30.04R
BERLIN         CLOUDY    46  36  68 VRB6      30.01R
WHITEFIELD     CLOUDY    47  36  65 W6        30.04R
JAFFREY        CLEAR     49  36  61 W3        30.07R
LEBANON        MOCLDY    48  38  68 CALM      30.06R
MT WASHINGTON  FOG       25  25 100 NW66G74     N/A  VSB 1/16WCI   2
$$

VTZ005-007-008-230300-
VERMONT

CITY           SKY/WX    TMP DP  RH WIND       PRES   REMARKS
ST JOHNSBURY     N/A     48  37  65 MISG      30.03R
MONTPELIER     MOCLDY    47  36  65 NW15G22   30.08R
BURLINGTON     CLOUDY    51  39  63 NW5       30.08R
$$

MAZ007-012-024-CTZ003-RIZ002-NYZ038-NYZ072-230300-
SOUTHERN NEW ENGLAND AND NY

CITY           SKY/WX    TMP DP  RH WIND       PRES   REMARKS
BOSTON         CLEAR     56  40  55 W13G23    30.05R
WORCESTER      CLEAR     47  38  71 W8        30.06R
NANTUCKET      CLEAR     63  46  54 NW16G22   30.01R
PROVIDENCE     PTCLDY    54  38  54 NW10      30.08R
HARTFORD       PTCLDY    52  38  58 NW9       30.10R
ALBANY         PTCLDY    50  40  68 W3        30.12R
NEW YORK CITY  PTCLDY    59  43  55 NW17G24   30.13R
$$

ANZ081-ANZ082-ANZ150-NHZ014-MEZ023>029-230300-
COASTAL MARINE OBSERVATIONS

STATION/POSITION TIME  TEMP    WIND        PRES    WAVE
                       AIR SEA DIR/SP/G            HT/PER
                 (UTC) (F)     (DEG/KT/KT) (MB)    (FT/S)
MATINICUS ROCK   0200          320/ 26/ 29 1014.3R
PORTLAND WX BUOY 0150   55 57  300/ 12/ 16 1015.2R   5/11
WELLS            0100   56 51  310/ 13/ 20 1014.2R
ISLE OF SHOALS   0200   56     300/ 15/ 18 1016.0R
JEFFREYS LEDGE   0121      60                N/A     6/11
CASHES LEDGE BUO 0150   57 58              1013.8R   7/11
$$

.............KEY..............
   WCI - WIND CHILL
   TC  - TEMPERATURE IN CELSIUS
   VSB - VISIBILITY IN MILES
   HX  - HEAT INDEX
   FAIR- INDICATES FEW OR NO CLOUDS BELOW 12,000 FT, WITH NO
         SIGNIFICANT WEATHER AND/OR OBSTRUCTIONS TO VISIBILITY.





USA.gov is the U.S. government's official web portal to all federal, state and local government web resources and services.